User: anonymous   Login
Location: Unspecified
(0.0000°N, 0.0000°E)
Time: 23:20:29
(UTC+00:00)
Language:

USA 264 DEB - Orbit

View from above orbital plane
View from above orbital plane
View from above satellite
View from above satellite

Ground track
Ground track

The orbit data is extracted from the following two-line orbital elements,

1 40981U 15058R   17343.26262752 0.00000000  00000-0  00000-0 0    04
2 40981  63.4409  75.5298 0061002 174.2092 185.7908 13.40740958    09
Epoch (UTC): 09 December 2017 06:18:11
Eccentricity: 0.0061002
inclination: 63.4409°
perigee height: 1061 km
apogee height: 1152 km
right ascension of ascending node: 75.5298°
argument of perigee: 174.2092°
revolutions per day: 13.40740958
mean anomaly at epoch: 185.7908°
orbit number at epoch: 0

The dashed part of the orbit path shows where the satellite is in the earth's shadow,  

DLR